Regional Weather Roundup
Issued by NWS Midland/Odessa, TX

Skip options and go directly to product.
Home | Oldest Version | Previous Version | Current Version | All | Text Only | Save Text | Print | Product List | Glossary Off

Skip product version selection by date and time.   

506
ASUS44 KMAF 240110
RWRMAF
MIDLAND AREA WEATHER ROUNDUP
NATIONAL WEATHER SERVICE MIDLAND TX
700 PM CST SUN NOV 23 2014

...IN SOUTHWEST TEXAS AND SOUTHEAST NEW MEXICO...

CITY           SKY/WX    TMP DP  RH WIND       PRES   REMARKS
ALPINE         CLEAR     58  25  29 W13       29.92R
ANDREWS        CLOUDY    46  29  53 N24G35    29.87R WCI  37
ARTESIA        NOT AVBL
BIG SPRING     MOCLDY    54  35  48 N23G30    29.85R
CARLSBAD       MOCLDY    55  24  30 N23G31    29.85R
DRYDEN           N/A     67  26  21 NW10      29.75R
FORT STOCKTON  CLEAR     63  23  21 NW21G30   29.80R
GUAD PASS      PTCLDY    49  14  24 W24G32    29.91R
HOBBS          CLEAR     41  28  60 N24G30    29.88R WCI  31
MARFA          CLEAR     55  25  30 W10       29.90R
MIDLAND AIRPK  CLOUDY    51  33  50 N14G29    29.85R
MIDLAND INTL   MOCLDY    52  31  44 N22G33    29.82R
ODESSA         MOCLDY    51  29  42 N18G35    29.84R
PECOS          CLEAR     62  25  23 W17       29.80R
PRESIDIO       FAIR      67  31  25 W9        29.82R
SEMINOLE       MOCLDY    43  29  58 N14G24    29.89R WCI  36
SNYDER         PTCLDY    48  34  58 N26G37    29.83R WCI  39
WINK           PTCLDY    56  27  32 N30G39    29.82R
$$
...OTHER STATIONS IN TEXAS...

CITY           SKY/WX    TMP DP  RH WIND       PRES   REMARKS
ABILENE        MOCLDY    55  35  47 N29G36    29.76R
AMARILLO       MOCLDY    37  32  82 NW14      29.83R WCI  28
AUSTIN         PTCLDY    64  46  52 W6        29.61R
BROWNSVILLE    PTCLDY    67  57  70 S5        29.67R
CORPUS CHRISTI CLEAR     67  63  87 SE7       29.64R
DALLAS FTW     PTCLDY    58  42  55 NW25G36   29.61R
DEL RIO        CLEAR     70  40  33 NW15      29.68R
EL PASO        PTCLDY    60  19  20 NW26G39   29.90R
HOUSTON INT    CLEAR     72  53  51 SW5       29.60R
LUBBOCK        MOCLDY    40  28  62 N8        29.86R WCI  34
SAN ANGELO     MOCLDY    67  28  23 NW15G25   29.70R
SAN ANTONIO    PTCLDY    71  43  36 SW8       29.64R
WACO           CLEAR     66  40  38 NW12      29.61R
WICHITA FALLS  NOT AVBL
$$
...OTHER LOCATIONS IN NEW MEXICO...

CITY           SKY/WX    TMP DP  RH WIND       PRES   REMARKS
ALAMAGORDO     PTCLDY    50  -2  11 MISG      29.96R
ALBUQUERQUE    PTCLDY    41   9  26 NW12G22   29.98R WCI  34
CANNON AFB     CLOUDY    37  31  79 NW8       29.90R WCI  30
CLOVIS         CLOUDY    36  28  75 W12       29.89R WCI  27
HOLLOMAN AFB   PTCLDY    51  -1  11 NW16      29.96R
ROSWELL        PTCLDY    41  30  65 N21       29.93R WCI  32
RUIDOSO        PTCLDY    34   1  25 NW10G21   29.97R WCI  26
SANTA FE       PTCLDY    35  10  35 NW12      29.90R WCI  27
TRUTH OR CONSE MOCLDY    48   3  15 NW15G26   29.99R
TUCUMCARI        N/A     37  33  85 W14       29.89R WCI  28
$$

USA.gov is the U.S. government's official web portal to all federal, state and local government web resources and services.